Location: *
(50.5492°N, 7.7469°E)
Time: 17:55:28
(UTC+00:00)

USA 116 - Pass Details

Date: 21 October 2019
Orbit: 405 x 834 km, 97.9° (Epoch: 18 November)

Event Time Altitude Azimuth Distance (km) Brightness Sun altitude
Rises 18:04:21 0° 14° (NNE) 2,362 6.8 -16.3°
Reaches altitude 10° 18:06:17 10° 15° (NNE) 1,515 5.8 -16.7°
Maximum altitude 18:09:29 87° 104° (ESE) 447 3.1 -17.2°
Drops below altitude 10° 18:12:56 10° 194° (SSW) 1,626 6.2 -17.7°
Sets 18:15:04 0° 195° (SSW) 2,556 7.3 -18.0°
